Wind_Speed
9 9 10 10 10 10 11 11 11 12 13 13 14 14 14 15 15 15 16 16 17 17 17 17 16 16 16 16 16 16 16 16 16 16 17 16 15 15 13 12 11 12 13 13 12 12 12 13 13 14 14 13 13 13 13 14 14 14 13 14 13 13 15 13 11 12 10 9 9 8 5 5 5 4 5 5 5 7 8 6 5 6 6 8 10 9 8 8
9 9 9 9 10 10 10 10 11 11 12 12 13 13 14 14 14 14 15 15 15 15 15 15 15 15 15 15 15 15 15 16 16 16 16 16 16 16 15 13 11 12 13 13 13 12 12 13 14 14 14 14 14 14 14 14 15 15 14 14 13 14 15 13 12 13 12 12 11 11 9 6 6 4 5 4 6 9 9 8 5 3 3 6 8 7 7 6
9 9 9 10 10 10 10 11 11 11 12 12 13 13 13 13 13 14 14 14 15 15 15 14 15 15 14 14 14 14 14 14 15 15 16 16 16 17 16 14 12 11 11 12 12 12 12 13 14 14 14 14 14 14 15 15 15 15 14 14 14 15 15 13 14 14 13 14 13 12 10 7 6 5 5 2 5 8 8 9 7 3 1 3 6 6 5 6
11 10 10 10 10 10 11 11 12 12 12 13 13 13 14 14 13 13 13 14 14 14 14 14 14 14 14 13 13 13 13 13 14 15 15 15 16 17 17 15 13 12 12 11 11 11 12 12 13 14 14 14 14 15 15 16 16 16 14 13 14 15 15 15 15 15 15 15 14 13 11 7 5 4 3 0 3 4 6 7 7 5 2 1 4 5 6 7
12 12 12 11 11 11 11 12 12 13 13 13 14 14 14 14 14 13 13 14 14 14 13 13 13 13 13 13 12 12 11 11 12 13 14 14 15 16 16 15 13 12 12 11 11 11 12 13 13 14 14 14 14 15 16 16 16 16 14 13 15 15 16 16 15 15 15 15 14 14 11 9 6 4 3 1 1 2 5 5 6 6 3 2 3 5 7 8
13 13 12 12 12 12 12 12 13 13 13 14 14 14 15 15 14 14 14 14 14 14 13 13 13 13 12 12 11 11 10 9 9 10 11 13 14 14 14 14 12 12 11 11 11 12 12 13 13 14 14 13 13 14 15 16 16 16 14 14 16 17 18 17 16 15 16 15 13 12 11 9 7 6 4 1 1 1 4 4 6 6 5 4 4 6 6 7
13 13 12 12 12 12 12 12 13 13 14 14 15 15 15 15 15 15 15 15 14 14 13 13 12 12 12 12 11 11 10 11 10 9 10 11 11 12 13 13 12 12 11 10 11 12 13 13 13 13 13 12 12 13 15 15 15 14 13 15 16 17 18 17 17 16 16 15 13 12 10 9 8 8 6 2 2 2 2 2 3 4 6 6 5 5 5 6
13 12 12 11 11 11 12 12 12 13 13 14 15 15 16 16 15 15 15 15 15 14 14 13 12 12 11 11 11 10 11 12 12 11 12 11 11 11 12 12 12 11 11 10 10 12 13 14 14 13 12 12 12 12 14 14 14 14 13 14 15 16 17 17 17 17 16 15 13 13 10 9 9 10 9 4 2 3 2 1 2 4 6 6 4 4 4 7
13 12 12 11 11 12 12 12 12 13 13 13 14 15 16 16 16 15 15 16 15 15 14 13 12 11 11 11 11 11 11 11 11 12 13 13 13 13 12 12 12 12 12 11 12 13 13 14 13 12 11 11 11 11 13 14 13 12 12 13 14 16 17 18 18 16 16 14 13 12 11 10 10 11 11 7 4 4 4 2 4 6 6 5 4 4 6 10
13 13 13 13 13 13 13 14 14 14 14 14 14 14 15 15 15 15 16 16 16 15 14 13 12 11 10 10 11 10 10 11 12 12 13 13 14 14 13 13 12 13 13 13 14 14 15 14 13 13 12 12 12 12 13 13 12 11 11 13 15 17 18 19 18 16 16 14 13 12 12 12 11 11 10 8 7 6 6 6 6 6 5 5 4 5 7 8
14 14 14 14 14 15 15 15 15 15 16 16 16 16 16 15 15 15 15 16 16 15 14 13 12 11 10 10 11 10 10 11 11 12 13 13 14 14 12 11 12 12 13 13 14 14 15 14 14 14 12 12 12 12 12 12 12 12 13 15 16 17 18 20 19 17 17 15 13 13 15 15 14 11 9 8 8 8 8 8 8 8 6 4 4 4 4 4
15 15 15 15 15 15 15 15 15 16 17 17 18 18 17 16 15 15 15 15 15 14 13 13 12 11 11 9 11 11 10 11 12 13 14 13 13 12 11 10 11 12 13 14 14 14 14 14 14 14 12 12 12 10 10 12 12 12 14 16 16 17 18 19 19 18 18 15 13 14 16 17 15 12 11 10 9 9 8 8 7 7 6 4 3 4 2 2
16 15 15 15 15 15 15 15 15 16 17 19 19 19 18 17 16 15 15 15 15 13 13 12 11 11 11 8 9 11 10 11 12 13 13 13 12 11 10 10 11 12 13 14 14 14 14 14 15 15 14 12 12 11 10 12 13 12 14 16 17 17 17 17 16 15 15 13 13 14 14 16 13 9 11 14 12 10 9 8 7 7 6 5 5 4 1 2
15 15 15 15 15 15 16 16 16 17 18 19 20 20 19 18 17 16 15 15 14 13 12 12 11 11 11 8 7 10 11 11 12 12 12 12 12 12 10 10 11 12 13 14 15 14 13 14 15 16 16 14 14 14 11 11 12 14 14 15 18 16 13 11 7 7 7 7 11 13 13 15 13 9 11 14 14 12 11 11 11 10 7 6 7 4 1 2
15 15 15 15 15 16 16 17 17 17 18 20 20 20 20 19 18 16 16 15 15 14 13 13 12 12 12 11 9 10 12 11 11 12 12 12 13 12 10 10 12 13 14 14 14 14 13 14 16 17 18 17 16 15 14 13 12 13 12 12 15 14 13 11 7 6 6 6 9 9 9 13 13 10 10 11 13 14 14 13 13 11 9 7 7 3 3 4
15 15 16 16 16 16 17 17 18 18 19 20 20 20 20 19 18 18 17 17 16 16 15 15 13 13 13 13 9 9 11 12 13 13 12 12 13 12 11 13 14 14 13 14 14 14 13 14 17 18 18 19 17 16 15 14 13 13 12 12 13 13 12 10 6 6 7 7 9 7 6 9 13 11 9 10 11 13 15 15 14 13 11 8 6 4 5 7
15 16 16 16 17 17 18 18 19 19 20 20 21 21 20 20 19 19 18 18 18 18 18 17 15 14 14 14 13 10 10 11 13 14 13 14 14 13 14 15 15 14 14 14 15 14 15 16 18 19 20 20 19 18 14 13 16 15 14 14 14 14 14 12 8 6 6 7 9 8 6 10 15 14 12 12 12 12 14 15 15 15 14 10 7 6 8 9
16 16 17 17 18 18 19 19 19 20 20 21 21 21 21 21 21 21 20 20 20 20 20 19 18 17 14 13 14 13 12 13 14 15 13 13 14 15 16 16 16 16 15 15 16 15 16 18 20 20 21 21 20 20 17 14 14 13 13 14 15 15 15 14 11 9 10 11 11 10 9 10 14 16 14 15 15 14 13 13 15 15 14 13 10 9 10 11
16 16 17 17 18 18 19 18 19 19 19 20 20 20 21 21 21 21 21 22 22 22 22 21 20 18 14 12 11 11 11 13 16 17 16 14 13 15 18 19 19 18 17 17 17 18 18 20 23 23 23 23 22 21 19 15 11 9 11 12 13 15 15 14 12 10 12 14 15 14 13 12 14 17 16 16 18 18 17 16 16 15 14 14 13 12 12 12
16 16 17 17 17 18 18 17 18 18 18 18 18 18 19 19 20 19 20 20 20 20 21 21 22 21 19 18 18 16 13 12 14 16 18 17 14 16 19 20 20 20 18 18 18 19 20 23 26 25 23 23 21 19 18 16 15 13 12 13 15 17 20 18 15 13 13 16 16 15 15 15 16 19 18 17 20 22 22 22 20 18 16 16 16 15 15 14
16 16 16 16 17 17 17 17 17 17 17 17 17 17 17 17 18 18 18 16 15 17 18 18 20 20 19 21 24 22 19 15 13 15 17 17 14 16 20 21 21 21 19 19 19 20 21 24 25 24 23 22 19 17 16 16 16 16 16 17 19 21 24 22 19 14 12 14 16 16 16 17 18 20 19 18 20 22 23 24 24 22 20 17 17 18 17 17
15 16 16 16 16 16 16 16 16 15 16 15 15 16 16 16 16 16 16 13 12 14 15 16 16 13 13 19 22 23 23 20 16 15 16 16 15 17 20 22 21 20 19 20 21 20 22 25 23 22 25 24 19 16 15 15 15 15 17 18 21 23 22 19 14 9 7 10 13 14 16 18 20 20 19 19 20 20 22 24 25 25 24 21 19 20 20 20
15 15 15 16 16 15 15 15 14 14 14 14 14 14 14 13 13 12 14 14 11 9 11 13 12 10 11 16 18 22 25 24 20 18 17 17 17 18 20 21 20 19 19 21 23 23 23 23 23 24 26 23 20 18 16 16 16 18 19 20 23 24 20 15 12 11 10 11 12 12 14 17 18 19 19 18 19 20 22 25 27 28 28 26 22 22 21 20
14 14 15 15 15 15 14 13 13 13 13 13 12 12 12 10 10 10 11 14 11 4 5 8 8 10 13 15 17 20 23 25 24 21 20 20 19 20 20 20 19 19 19 20 23 25 23 19 19 23 25 22 20 19 18 18 20 21 22 23 25 24 21 18 17 15 12 12 12 10 11 15 16 16 17 17 18 20 21 25 28 30 31 29 26 24 22 20
14 13 14 15 14 14 13 13 12 12 12 12 11 11 10 8 8 8 8 10 8 2 2 4 4 6 10 11 14 17 19 22 24 22 22 22 21 21 20 20 19 18 17 18 22 25 25 21 15 15 19 21 20 20 19 18 19 21 23 23 22 20 18 17 15 12 10 9 7 3 4 8 11 13 14 14 16 17 20 24 28 30 31 30 29 28 26 23
13 13 14 14 13 13 13 12 11 12 11 10 10 9 7 6 5 5 7 8 4 2 1 3 2 1 5 7 8 13 15 17 21 24 24 23 21 21 20 20 20 17 15 18 21 22 23 24 19 13 12 15 17 18 18 16 15 17 17 14 13 13 12 12 11 9 8 6 5 5 6 8 11 13 12 12 14 16 20 26 30 32 31 28 29 29 28 26
13 13 13 12 11 11 11 11 10 10 10 9 9 7 4 5 3 3 5 5 2 1 1 2 3 2 4 5 4 7 9 12 20 25 25 24 23 23 21 21 20 18 17 18 19 19 20 23 24 20 16 15 16 17 15 14 13 11 8 5 6 8 7 7 7 8 9 9 11 12 10 10 14 15 13 12 12 14 18 24 29 33 32 28 28 29 30 29
12 11 11 10 9 9 9 9 8 8 8 8 7 5 4 4 3 2 2 1 0 2 3 3 3 2 4 3 2 5 9 10 16 21 24 24 25 25 23 23 21 18 17 18 18 17 17 18 21 22 22 21 19 15 12 13 13 9 4 3 5 5 5 6 7 9 10 9 11 13 9 7 10 11 11 11 11 12 14 19 24 29 31 29 28 29 30 30
10 8 8 8 8 7 7 7 6 6 7 6 5 5 5 4 3 1 1 1 1 3 2 1 2 2 4 1 2 7 12 12 9 14 22 25 25 26 24 23 21 18 16 16 16 15 13 11 11 14 17 19 17 13 10 10 9 7 5 6 7 5 5 6 7 8 6 4 9 12 7 5 7 9 9 8 10 9 12 19 23 29 30 28 29 28 28 29
8 6 6 8 7 6 6 6 6 6 6 5 4 5 6 5 4 1 0 2 3 3 4 4 3 2 6 2 2 6 13 14 9 8 17 24 26 27 25 22 20 19 17 15 15 15 14 11 10 9 10 12 12 11 10 10 8 7 7 7 6 5 5 4 4 5 2 4 12 13 8 7 5 5 7 8 9 8 10 17 21 26 29 30 30 27 25 26
6 5 7 8 7 6 6 6 7 7 6 5 5 6 7 6 5 2 1 3 3 2 4 6 5 1 6 5 1 5 11 15 12 8 13 22 28 29 27 23 19 17 17 18 18 17 17 17 14 12 10 11 11 11 11 10 9 8 9 7 4 2 2 1 2 3 4 5 7 7 6 9 8 5 4 6 7 8 9 11 16 21 25 27 27 24 23 24
5 6 7 8 8 7 7 7 8 8 7 6 6 7 9 7 6 6 4 2 2 2 4 5 6 2 5 5 2 4 10 15 14 9 11 20 28 31 30 27 24 18 15 20 22 18 18 19 17 14 14 14 12 12 13 13 12 10 10 8 4 2 2 3 2 3 5 6 5 5 4 7 12 12 11 10 9 9 8 7 12 17 21 23 23 21 22 23
6 7 8 8 8 8 8 7 8 8 8 8 7 10 11 7 4 8 9 5 3 2 2 3 5 4 5 5 1 4 10 15 14 9 9 16 25 31 31 29 27 19 12 17 21 18 14 15 16 16 16 16 16 16 15 13 12 11 11 11 8 4 2 2 2 1 5 7 8 10 7 6 9 12 14 16 14 11 9 6 9 14 17 20 21 20 20 20
6 7 8 8 9 8 8 7 8 8 8 9 9 12 14 8 3 5 8 8 7 6 6 7 7 6 4 3 1 3 10 14 14 9 7 14 22 28 30 29 26 21 14 13 13 13 10 9 12 15 15 15 18 18 15 11 10 9 9 10 11 9 5 3 3 3 5 3 3 6 6 5 5 7 10 14 16 15 11 9 9 12 13 15 18 18 18 17
7 7 8 8 8 8 7 7 7 8 8 9 11 15 15 10 6 5 6 7 8 8 7 7 8 7 3 1 2 1 8 12 14 10 6 12 19 22 25 27 26 23 19 14 9 8 10 8 7 13 13 11 14 16 14 11 11 10 9 11 13 13 10 5 4 6 4 2 1 5 6 6 7 8 9 10 13 16 14 12 11 12 12 13 14 15 16 16
6 6 7 7 7 6 5 6 6 7 8 10 12 17 16 11 8 6 6 6 7 8 7 6 7 7 5 4 0 0 6 10 14 14 9 10 15 18 20 22 23 22 21 19 13 8 8 7 5 10 12 10 10 11 12 11 10 10 12 15 14 12 12 8 4 4 3 2 3 4 5 6 7 8 10 9 10 13 14 13 12 12 12 13 13 14 15 15
5 6 6 6 6 5 4 5 7 7 8 10 13 15 14 13 11 10 8 9 10 10 9 6 5 5 5 6 3 0 5 8 11 14 13 11 13 16 20 20 20 21 19 18 16 11 8 8 5 6 9 11 10 9 10 11 11 10 12 14 12 9 12 11 3 0 2 3 3 4 4 6 6 6 8 11 10 10 12 12 12 13 13 12 13 13 12 10
5 5 6 6 5 4 4 4 7 7 8 10 12 12 12 12 13 12 11 11 11 10 9 7 5 5 4 4 2 2 5 7 9 13 13 12 11 11 17 20 18 18 18 18 18 14 11 9 6 5 7 9 10 9 10 12 14 14 11 10 9 7 9 11 6 1 3 3 1 2 4 6 7 7 6 8 8 9 11 11 11 12 13 13 13 11 10 10
5 5 5 5 5 4 4 4 6 7 8 9 10 11 11 11 11 11 11 10 9 8 7 6 7 7 5 5 1 2 4 5 7 12 13 14 11 7 11 16 16 16 17 19 20 17 14 10 5 5 7 8 10 11 10 11 14 16 14 11 11 9 7 11 10 5 3 3 1 1 2 4 7 8 6 5 5 6 8 10 10 11 12 14 14 11 11 14
5 5 5 5 5 5 4 5 5 7 8 9 9 10 10 10 10 10 10 10 9 7 7 7 8 8 7 6 4 1 3 3 5 9 12 15 15 10 9 10 12 14 16 18 20 19 19 16 9 5 6 6 7 9 9 10 14 17 19 17 15 13 9 7 10 9 5 1 2 2 2 3 6 9 9 7 6 5 6 8 10 11 11 12 14 13 13 18
6 6 6 6 6 5 5 5 6 6 7 9 10 10 11 11 11 10 10 11 10 8 8 8 9 9 7 5 4 2 1 2 3 3 8 14 17 16 12 10 10 12 13 16 19 20 20 20 17 13 10 9 8 8 7 8 11 15 19 20 19 19 14 7 7 10 8 3 3 3 2 2 4 8 9 9 7 6 6 7 8 9 9 9 10 11 12 22
6 7 7 6 6 5 5 5 5 6 7 9 9 10 11 12 11 9 10 11 10 9 10 9 8 9 7 5 5 4 3 2 1 0 4 10 15 16 15 13 12 12 12 14 18 21 20 19 19 17 15 13 10 9 9 8 9 12 15 17 19 21 20 13 7 8 10 7 5 3 2 3 5 7 8 10 9 7 7 6 5 6 5 6 6 5 10 19
7 7 6 6 5 5 5 5 5 5 6 7 8 8 9 10 10 9 10 10 10 10 11 9 8 9 8 7 7 5 4 3 2 2 3 7 12 15 15 14 14 13 11 11 15 20 20 16 15 14 11 9 8 9 10 10 10 11 13 16 18 20 21 18 11 9 11 11 7 4 3 4 6 7 7 9 9 8 7 6 4 5 5 3 5 4 9 11
7 6 6 5 4 4 4 4 4 4 5 6 6 7 8 9 9 9 9 9 9 11 11 10 9 10 10 9 8 6 5 4 2 1 3 7 10 13 14 15 16 15 12 10 13 17 17 13 13 10 5 5 6 6 8 10 10 10 12 15 17 19 20 18 13 9 10 13 11 5 3 4 6 7 7 8 9 8 7 7 6 7 6 4 5 4 4 5
6 6 6 5 4 4 4 4 3 4 5 4 4 4 5 7 7 7 8 8 9 11 12 11 11 12 12 10 9 7 6 8 6 2 3 7 10 14 15 15 17 18 17 12 11 14 14 12 13 10 4 5 6 5 8 10 9 10 11 12 14 16 18 17 13 10 9 12 13 7 4 6 7 7 9 10 9 8 8 8 9 8 7 6 6 6 6 7
5 5 5 4 4 4 4 3 3 3 2 1 1 1 2 3 4 4 5 7 8 10 11 11 11 13 14 12 10 8 7 10 9 5 6 9 11 15 16 13 15 19 19 16 15 14 11 11 12 12 9 7 7 8 12 12 11 10 11 11 11 12 14 15 13 12 11 12 13 11 9 8 7 7 10 11 10 10 10 10 10 9 8 7 7 9 10 10
5 5 5 4 4 3 2 1 2 1 2 3 2 2 2 0 2 2 4 6 7 8 10 11 12 12 14 14 12 8 8 10 10 10 11 10 12 14 15 13 12 13 13 15 18 17 12 10 11 12 12 10 8 9 12 13 12 11 11 11 11 10 11 13 13 12 12 11 10 12 13 11 9 10 11 12 12 12 13 12 11 9 7 7 8 10 11 11
6 5 4 4 4 3 1 1 1 1 1 4 4 4 4 2 0 2 3 5 6 7 8 10 11 12 12 13 11 9 8 8 9 13 14 14 13 11 10 13 12 10 8 9 12 13 12 12 11 11 11 12 11 9 10 12 12 12 12 11 11 10 9 10 11 10 11 11 9 11 14 14 13 13 11 11 12 13 14 12 10 9 8 7 7 9 10 10
7 6 5 4 3 4 3 2 2 0 1 3 4 3 4 3 1 2 3 4 5 7 8 8 9 11 12 11 10 9 8 7 8 11 14 16 16 13 8 9 10 10 8 8 10 10 10 10 10 10 10 11 11 10 10 11 11 11 12 12 11 10 8 9 10 9 10 10 8 9 13 14 14 14 12 10 11 12 12 11 10 10 9 8 7 9 10 9
6 5 5 3 2 4 4 2 1 1 1 2 2 3 3 3 1 2 4 4 5 7 9 9 8 9 10 9 7 6 7 8 8 10 12 14 15 16 13 11 11 10 10 10 11 10 9 8 9 10 10 10 10 10 9 9 8 8 9 10 10 10 9 8 9 10 10 8 6 8 12 14 14 13 13 12 10 10 10 10 10 10 9 8 8 8 10 10
5 4 3 2 1 2 3 3 3 2 1 2 2 3 3 2 1 2 4 6 7 7 9 11 10 8 8 7 5 4 6 8 9 10 12 11 12 14 15 16 16 15 13 11 11 10 9 8 9 9 9 10 10 11 10 9 9 7 7 8 9 9 10 10 10 10 9 8 8 10 13 15 14 13 14 12 10 10 10 10 10 9 8 8 7 6 6 7
4 3 2 2 1 1 2 3 4 3 2 2 3 4 4 2 1 2 3 4 7 8 9 13 12 9 8 7 5 3 4 6 8 10 10 10 11 12 11 12 13 12 13 10 8 8 8 8 9 9 9 10 12 12 12 11 8 6 5 5 6 8 9 9 10 10 10 9 10 11 13 14 14 13 13 12 10 10 11 10 8 7 6 6 5 4 6 8
Wind_Direction
259 263 266 269 269 269 268 268 269 270 270 269 268 267 266 265 265 264 262 261 260 260 259 259 259 259 258 256 254 254 254 254 254 251 247 245 246 253 260 262 260 258 255 254 251 246 240 236 236 235 234 232 232 233 232 233 231 230 229 231 235 239 245 248 250 254 250 235 223 232 273 337 358 31 48 63 104 132 142 150 174 193 210 220 227 241 242 243
254 257 261 265 269 271 271 271 271 271 272 273 272 272 271 270 269 269 268 266 265 264 263 262 262 261 260 258 256 255 255 255 254 251 248 244 243 246 253 259 258 255 254 255 251 245 240 234 232 231 231 230 229 230 230 231 229 229 228 231 236 240 245 247 251 254 255 248 235 242 264 296 324 358 25 41 105 124 131 134 140 165 215 230 230 237 249 257
252 253 256 260 264 269 272 273 273 273 273 274 274 274 274 272 272 271 271 270 269 267 266 265 264 262 261 260 259 257 257 257 255 252 249 244 240 243 249 255 256 254 254 255 252 248 243 238 235 233 232 230 229 230 230 230 229 228 227 233 237 240 246 246 249 253 259 258 248 252 262 273 300 329 357 33 123 127 140 144 139 142 211 235 232 238 257 269
253 253 255 257 260 264 268 271 273 274 274 274 274 274 274 273 272 271 271 271 270 268 267 266 264 263 261 260 259 258 257 258 256 251 248 244 240 240 245 251 253 253 252 252 251 246 241 239 237 237 235 233 232 231 232 231 230 228 228 237 241 241 246 247 250 253 259 263 259 262 264 262 275 304 330 31 126 129 160 154 148 167 186 280 255 253 274 283
254 255 256 257 259 261 264 268 271 273 274 275 275 275 275 274 272 271 270 270 269 268 267 266 264 262 260 258 257 257 258 263 260 251 248 244 241 240 242 247 249 249 248 247 246 243 240 236 235 237 237 236 236 235 236 234 231 232 233 241 245 245 246 248 251 254 260 263 263 272 271 259 254 263 281 260 76 111 157 151 146 166 187 274 256 247 267 279
254 255 256 258 259 261 263 265 267 271 273 275 275 275 275 275 274 272 271 270 269 269 266 265 264 261 259 256 254 254 252 256 255 250 249 245 242 242 242 244 244 245 245 243 243 242 240 238 236 237 239 239 241 242 243 240 237 240 242 242 245 248 249 249 251 255 263 264 264 274 272 256 248 237 228 239 333 185 158 147 144 162 189 217 225 227 251 275
253 254 257 259 261 263 265 266 268 269 271 272 274 274 274 274 274 273 272 271 270 269 267 265 263 261 259 255 251 250 246 246 247 245 247 245 242 241 241 242 243 244 243 240 240 240 240 238 236 235 237 239 240 244 247 245 244 246 248 247 248 253 255 257 257 257 261 263 264 270 266 253 254 245 219 206 296 226 151 115 135 165 186 192 201 219 256 277
250 252 255 259 262 265 267 268 269 269 270 271 272 273 273 273 273 273 273 272 271 270 269 266 263 260 258 255 249 246 247 247 246 243 243 244 243 241 240 241 241 241 240 239 240 240 239 237 235 234 234 236 239 246 250 248 247 247 249 252 254 256 260 263 261 257 257 258 260 263 258 247 256 252 227 216 282 234 187 122 159 172 176 179 186 219 268 287
249 251 255 258 262 265 268 270 271 272 273 272 273 272 272 272 271 272 272 271 270 269 268 267 265 260 257 256 249 246 248 248 244 241 241 241 243 243 242 242 240 239 243 245 241 235 234 234 233 232 232 233 234 240 247 247 246 246 249 251 250 252 256 260 259 256 256 254 253 254 248 241 247 248 234 235 262 243 231 205 169 171 177 183 196 237 290 310
250 253 256 260 263 265 268 269 271 274 275 275 275 274 273 272 272 271 270 270 270 269 268 267 267 262 258 256 251 251 251 245 241 239 238 238 241 243 243 245 245 246 251 250 242 233 229 227 224 224 223 224 228 233 238 242 242 242 245 243 240 243 248 253 255 254 256 254 248 245 238 234 238 238 231 238 246 237 233 213 192 196 204 211 222 260 306 330
253 255 258 260 262 264 265 267 270 272 274 275 274 274 273 273 272 272 271 270 270 269 268 267 267 264 260 256 256 259 252 242 239 237 236 236 237 240 242 245 247 247 249 250 246 240 232 225 222 219 215 218 224 230 234 236 237 235 238 241 241 245 248 252 254 253 254 252 246 244 237 232 233 229 217 225 228 219 219 208 199 211 220 229 245 289 318 358
256 258 258 260 261 262 264 265 268 272 274 273 272 272 271 272 271 271 272 271 271 271 270 268 266 264 260 260 265 262 249 239 237 235 237 238 237 240 241 240 239 238 241 245 247 245 240 233 224 212 207 217 218 221 232 233 233 231 236 243 246 249 252 257 262 263 261 254 246 248 248 243 236 225 214 211 203 195 202 197 195 216 233 256 278 317 320 41
258 258 258 259 259 261 263 265 269 272 274 273 272 270 269 269 269 270 271 271 273 272 272 271 267 264 257 258 265 255 241 234 234 235 236 236 233 231 232 232 231 232 236 240 241 241 242 238 228 215 206 208 206 208 222 227 228 230 234 242 248 253 260 266 274 277 274 265 251 250 257 253 239 224 215 206 196 190 198 205 215 235 251 275 289 314 298 116
259 259 258 258 258 261 263 265 268 270 272 272 272 271 269 268 267 268 268 269 271 270 271 269 267 265 253 250 261 250 239 231 228 234 233 227 222 218 217 222 224 226 231 236 237 237 237 235 231 221 209 200 202 208 215 219 222 226 233 244 251 257 264 264 270 281 280 269 252 248 259 259 247 238 225 211 206 205 209 219 230 244 253 271 287 302 216 149
260 260 260 259 260 262 264 266 268 269 270 270 271 271 270 268 267 265 265 265 267 266 266 264 264 264 256 257 262 245 241 240 232 232 232 226 221 214 206 209 217 221 227 234 235 235 233 230 228 221 210 203 205 207 211 216 221 225 230 244 251 256 261 257 258 266 258 254 252 246 256 261 253 250 238 225 223 217 216 225 231 242 250 261 280 279 187 188
262 262 262 262 263 264 266 267 268 268 269 270 271 271 271 270 267 264 262 261 261 262 263 262 262 263 261 265 265 244 242 249 246 239 234 230 223 213 204 207 214 217 224 231 232 231 226 222 222 217 210 208 209 209 212 219 225 227 229 240 249 255 263 266 265 261 246 241 249 245 244 251 248 247 241 232 229 223 220 226 232 240 243 245 261 248 193 197
265 265 266 266 267 268 269 269 270 270 270 270 271 271 271 271 269 266 264 261 261 260 260 261 260 262 262 262 264 258 249 246 250 248 238 233 227 215 209 209 211 213 219 226 228 226 220 216 216 213 212 211 211 211 213 223 228 230 234 242 250 257 267 271 262 247 236 234 240 242 240 245 246 247 244 234 228 222 220 226 232 236 236 232 234 228 202 200
269 270 271 271 273 273 273 273 273 272 272 272 272 272 272 271 270 268 267 265 263 261 261 259 258 260 260 258 259 258 252 243 245 250 244 237 230 221 215 209 207 212 216 222 224 221 216 215 214 212 213 214 213 213 215 223 228 230 238 246 255 261 266 270 268 258 249 245 243 246 249 245 244 246 246 243 238 229 226 234 235 235 233 222 215 215 204 199
273 274 274 275 276 276 276 276 276 276 276 275 274 274 273 273 272 271 269 266 264 263 263 260 256 254 251 250 252 248 248 245 241 245 247 243 231 220 217 210 208 213 217 220 222 218 214 213 211 212 217 219 219 219 220 225 228 227 231 240 251 259 263 268 273 268 261 258 250 247 253 253 245 242 240 241 242 237 237 243 239 236 232 215 204 206 203 199
275 275 275 277 277 277 278 278 279 279 280 280 279 277 276 277 277 276 272 269 268 265 260 257 254 250 246 245 246 247 250 249 242 242 244 244 234 215 212 211 210 213 217 219 220 217 214 213 214 218 223 224 222 223 226 231 236 239 240 244 253 263 270 274 281 281 275 270 260 249 252 256 247 241 238 237 239 237 237 242 242 240 234 217 203 200 202 199
276 276 277 278 279 279 280 281 282 282 283 284 283 282 282 283 284 282 279 275 271 266 260 256 253 249 245 243 243 244 247 244 239 238 238 238 229 212 209 211 211 215 217 214 215 215 214 215 218 224 228 227 224 225 230 236 242 249 253 257 262 266 273 282 292 293 283 274 265 256 257 258 250 243 239 238 239 237 236 239 242 244 241 228 211 204 204 202
277 278 279 280 280 281 281 282 283 284 284 284 284 284 286 288 288 288 288 280 265 265 266 263 262 257 243 241 241 239 238 234 229 230 232 230 222 212 211 213 215 219 218 211 210 212 217 220 220 223 228 229 227 226 230 237 245 252 256 262 265 266 275 288 298 300 291 279 267 260 265 263 257 252 244 242 244 243 240 238 240 242 243 237 222 212 208 205
280 280 280 280 280 281 282 282 283 283 284 284 285 286 289 292 291 290 290 282 272 269 264 261 265 263 247 242 237 232 231 227 221 222 226 226 223 218 214 216 219 220 218 215 214 212 218 226 222 220 227 230 231 231 234 240 246 251 255 261 265 269 278 287 289 292 289 280 269 266 274 271 264 258 248 245 246 244 241 239 238 238 240 238 231 223 217 210
280 279 279 279 279 281 281 281 282 282 282 284 286 289 291 293 290 290 289 286 291 294 250 244 243 246 251 250 240 233 229 224 219 219 222 225 223 221 218 218 220 222 224 225 222 219 222 230 226 223 229 233 235 237 240 246 251 255 257 260 265 273 281 284 287 291 282 268 265 271 280 274 266 257 246 241 243 244 241 238 238 238 238 237 233 227 219 213
278 277 276 276 279 280 280 280 281 280 280 283 286 288 291 289 287 294 300 297 307 8 192 206 197 235 251 258 248 236 230 223 218 216 219 224 225 223 220 216 217 223 229 228 225 224 225 229 228 224 228 231 235 237 239 244 252 257 259 262 270 280 286 283 282 284 276 263 253 260 281 270 259 247 240 239 246 253 247 239 237 236 234 233 231 224 214 213
277 275 274 275 277 278 278 279 277 277 278 280 282 283 284 282 283 301 309 303 308 62 111 192 160 275 266 276 262 232 225 220 213 212 215 220 226 225 221 217 217 222 227 227 226 228 228 228 226 216 210 215 223 229 231 234 244 255 262 270 280 284 279 272 270 269 268 263 252 268 281 277 269 256 250 257 265 268 254 239 233 228 224 226 229 223 215 216
275 273 274 275 276 275 275 275 272 274 274 272 274 274 268 264 270 311 313 308 299 77 43 161 145 8 314 308 287 214 204 203 204 209 212 215 221 222 220 219 219 220 221 219 223 231 232 228 227 222 214 216 221 223 222 221 230 246 262 288 288 276 267 266 269 261 262 274 279 277 270 269 274 269 268 276 283 280 259 241 230 220 215 217 220 218 216 220
274 272 275 275 272 269 268 270 270 270 269 265 264 254 239 238 250 313 325 16 81 149 112 117 133 30 350 325 294 181 175 182 197 206 208 210 215 217 218 220 222 227 225 219 222 234 239 234 230 227 227 234 233 225 215 214 223 232 249 299 289 273 261 252 255 260 273 286 282 275 260 250 270 275 277 284 291 285 252 231 220 211 209 210 210 212 215 220
271 271 271 267 263 260 261 269 270 263 262 259 250 228 217 213 212 253 77 122 186 182 181 199 173 28 9 336 226 190 183 175 177 198 202 204 209 213 216 219 224 230 231 229 231 237 240 233 226 224 228 234 230 219 212 210 218 229 253 295 300 284 261 253 257 263 272 272 262 266 256 241 271 276 274 282 292 279 227 212 209 203 201 200 202 207 214 220
267 262 257 256 258 259 263 269 263 256 256 248 233 214 206 204 201 179 68 194 183 178 205 210 199 10 10 2 209 204 200 193 181 181 195 201 205 209 213 218 224 227 228 230 232 233 235 235 233 226 218 214 209 207 208 210 223 242 263 290 303 290 268 267 268 253 235 244 257 266 260 246 269 275 261 264 275 267 223 211 211 205 200 201 203 208 217 223
260 246 245 253 260 262 260 261 256 252 251 237 219 209 201 200 199 172 121 197 209 216 192 190 200 339 10 359 249 203 205 207 204 187 192 199 202 206 209 212 216 218 223 229 231 233 236 240 244 239 227 214 207 208 211 220 235 250 265 276 286 273 223 217 217 199 214 247 267 283 264 234 236 248 260 261 260 256 236 219 217 212 207 207 209 210 215 223
249 243 247 255 261 261 255 253 251 247 241 225 211 205 195 194 209 207 191 189 245 236 185 187 209 225 8 357 302 208 197 201 204 201 204 204 204 207 210 212 211 205 211 224 231 238 242 245 246 245 242 234 225 224 226 232 237 245 253 242 217 184 161 190 194 191 239 255 274 291 263 224 238 251 255 256 259 256 247 228 222 219 211 208 211 213 216 220
250 249 253 255 257 256 251 246 244 241 232 217 206 198 188 187 225 223 219 234 256 243 251 259 241 259 338 350 303 203 187 189 195 206 216 206 206 209 210 213 214 210 211 220 228 239 249 251 245 240 238 227 220 224 225 228 228 231 233 211 187 167 140 199 202 220 260 261 268 262 249 238 249 252 247 248 251 249 249 249 232 225 217 211 213 220 224 225
254 254 253 253 253 251 246 239 237 235 224 213 201 190 187 196 232 223 224 238 250 262 285 290 269 273 322 6 16 186 184 188 195 210 219 201 204 209 209 211 213 215 218 217 224 229 233 250 239 227 226 219 215 217 218 223 229 237 238 216 200 196 195 206 207 227 252 259 260 234 221 221 229 235 238 239 239 239 249 259 241 230 226 220 218 224 232 235
252 252 251 251 250 247 239 230 227 225 215 209 199 192 195 210 228 229 233 242 253 264 276 283 278 275 261 100 27 177 186 190 195 206 214 201 204 208 209 212 212 213 216 214 213 211 220 245 226 206 211 215 216 218 218 226 240 246 234 218 218 218 218 222 215 219 236 259 211 198 214 222 215 227 235 232 235 237 245 252 243 235 231 227 226 226 231 236
248 247 245 246 246 240 227 215 210 206 204 202 202 204 209 220 231 239 246 254 266 273 281 288 279 276 250 209 337 3 193 193 197 203 205 206 212 213 212 214 215 215 217 217 215 208 218 238 215 196 200 199 204 214 215 218 230 228 210 212 227 229 222 221 217 218 230 261 236 211 233 232 216 231 236 235 243 239 239 242 237 233 228 226 228 226 227 226
239 235 234 237 239 234 216 197 191 191 195 199 207 214 221 230 239 248 257 267 277 281 291 300 272 271 253 207 171 108 202 194 196 203 202 204 216 222 220 221 223 224 225 224 221 219 230 244 238 205 200 201 206 215 220 221 223 216 210 219 228 220 214 216 215 159 214 247 245 221 250 242 216 225 230 232 243 243 240 237 229 230 228 226 230 228 222 208
222 219 224 228 230 230 214 185 179 185 194 203 213 222 231 238 246 256 264 269 279 282 286 287 256 257 261 215 153 109 189 190 192 201 203 202 210 223 223 226 230 230 232 233 227 225 238 253 250 223 217 216 216 220 223 222 222 225 227 228 219 204 204 205 202 222 218 233 252 218 260 257 228 221 221 224 234 241 244 240 232 232 232 236 237 226 205 188
209 208 213 217 216 219 212 187 181 188 196 206 216 225 234 242 248 256 264 268 277 281 279 274 250 243 253 256 256 117 154 169 186 200 203 201 203 209 215 222 228 229 231 233 230 226 230 241 253 242 230 215 208 218 226 221 218 222 226 225 219 218 209 198 203 222 229 223 216 206 255 258 235 229 224 223 232 242 248 248 247 245 246 249 246 230 201 192
205 202 201 206 208 212 215 208 199 199 205 215 223 229 237 246 249 255 265 269 272 272 264 260 252 246 249 259 265 191 148 142 168 200 207 205 206 208 208 212 218 221 225 229 229 227 226 230 236 224 208 204 212 222 226 227 222 218 218 219 218 217 208 197 209 220 225 206 180 212 237 226 230 230 225 225 231 233 242 247 250 255 261 265 266 260 225 202
204 200 197 203 207 209 215 219 219 217 221 228 234 239 246 252 254 257 265 268 268 268 260 253 249 249 249 244 241 257 260 168 147 186 204 205 210 215 218 221 222 224 225 222 222 220 221 227 230 228 232 246 253 240 227 229 226 219 220 224 224 218 205 194 211 214 213 211 188 197 237 227 225 231 231 235 239 241 246 249 251 259 273 275 277 284 248 213
200 199 200 202 204 210 219 226 229 229 233 240 244 249 253 257 259 256 255 259 262 261 259 255 247 241 241 239 233 254 295 274 213 293 204 204 210 212 215 221 227 232 228 220 219 216 216 224 229 233 244 257 263 253 241 238 229 221 222 225 227 222 212 211 222 206 199 206 200 185 221 242 232 231 236 239 241 248 252 253 253 248 255 255 250 302 282 227
193 192 193 193 201 218 229 230 229 229 240 249 253 256 257 258 258 249 244 249 250 249 250 251 244 228 225 235 233 239 283 294 301 305 225 204 205 204 205 209 213 220 220 213 213 210 210 219 221 221 232 240 241 232 223 223 224 223 223 220 220 221 218 221 233 220 201 198 189 180 208 227 232 236 238 236 235 240 239 233 224 199 181 212 234 292 307 238
186 185 189 193 206 227 232 231 238 256 272 278 277 275 269 263 258 248 246 246 240 237 238 240 237 222 218 228 228 234 265 266 279 319 223 201 194 195 199 202 200 198 195 197 202 200 200 204 198 187 183 196 206 213 206 205 210 214 217 218 218 220 220 224 231 225 208 200 196 199 199 199 220 228 226 234 235 233 231 218 203 193 185 207 230 234 278 234
178 183 195 202 218 238 246 257 279 301 305 301 296 291 282 275 266 252 247 244 236 230 228 230 232 222 217 224 229 240 257 246 245 283 231 202 186 185 192 201 203 198 194 196 194 189 196 204 195 186 184 179 181 202 206 200 198 200 204 208 212 216 220 225 223 215 212 206 201 199 189 190 207 210 207 224 230 218 217 212 202 203 212 221 223 213 213 218
177 190 203 214 230 243 256 293 329 335 342 352 345 340 311 279 272 254 232 232 235 228 221 221 225 222 220 226 233 245 261 250 240 232 218 202 185 184 187 193 205 206 207 218 217 201 203 215 210 211 223 216 198 200 205 202 197 191 188 190 195 205 215 219 217 219 222 210 201 205 208 198 199 202 203 213 214 204 204 205 205 213 226 232 224 214 216 222
192 203 211 220 231 241 256 357 8 27 68 48 32 25 34 40 243 233 210 219 228 217 211 217 221 223 223 226 233 243 257 256 240 223 217 198 181 182 174 164 181 200 209 224 226 221 225 231 223 221 225 224 212 205 207 208 208 202 193 187 186 190 200 206 212 224 227 214 205 212 210 200 202 211 208 203 199 197 199 202 207 212 217 227 224 217 222 231
198 207 214 220 232 252 249 257 297 255 55 29 22 22 18 16 239 208 200 213 217 204 205 214 218 224 227 227 233 241 247 253 242 230 225 208 197 197 165 145 159 177 185 202 209 215 226 231 228 226 225 223 219 218 223 222 219 215 208 197 189 185 185 194 206 216 217 217 221 214 204 201 210 218 214 205 196 192 196 201 205 205 208 223 227 216 219 227
202 214 224 223 239 254 243 250 289 278 67 10 0 2 2 1 332 203 205 222 222 207 205 205 208 221 231 232 236 241 238 234 225 224 227 221 219 223 202 168 168 168 174 190 192 200 213 216 222 225 218 219 218 217 225 227 221 216 212 206 201 196 188 189 196 195 194 209 222 213 204 205 214 219 220 215 201 191 194 199 201 205 212 223 225 215 218 224
205 213 216 221 253 250 238 239 235 161 75 355 338 339 354 6 347 226 227 241 244 225 214 211 203 208 222 226 233 244 235 223 215 212 216 218 218 217 210 203 194 178 181 195 193 198 211 209 213 216 207 206 211 209 210 212 211 213 214 212 213 212 203 193 189 182 179 189 200 201 202 204 212 218 218 215 204 194 199 207 209 213 219 222 222 218 221 226
192 180 178 193 247 231 226 211 185 189 285 320 322 321 337 7 357 270 256 248 252 250 234 229 221 206 204 201 201 236 236 224 219 213 210 211 211 208 202 202 198 182 177 190 194 198 210 204 197 203 201 196 199 202 200 196 199 207 208 207 210 211 206 201 196 191 187 182 178 185 195 201 209 217 217 214 204 197 210 220 217 218 221 220 218 217 228 244
162 134 134 153 139 148 202 211 207 232 273 285 299 307 312 341 21 336 309 265 259 262 252 246 243 231 212 186 165 204 232 230 231 227 222 214 211 214 210 203 194 169 155 166 180 189 204 202 190 194 199 192 186 182 178 178 188 201 203 199 198 196 199 204 203 202 203 194 183 187 195 201 209 214 218 220 211 208 220 223 214 210 205 200 207 219 234 242
Height
3099 3099 3099 3099 3099 3100 3100 3100 3100 3100 3100 3100 3100 3100 3100 3100 3100 3101 3101 3101 3101 3101 3102 3102 3103 3103 3103 3104 3105 3105 3106 3107 3107 3108 3108 3109 3111 3111 3111 3112 3112 3112 3112 3113 3114 3114 3115 3116 3116 3117 3118 3118 3119 3120 3120 3121 3122 3124 3125 3126 3126 3126 3125 3127 3128 3128 3129 3130 3130 3131 3131 3131 3131 3130 3130 3129 3129 3129 3130 3131 3133 3134 3135 3135 3136 3137 3137 3137
3097 3097 3097 3098 3098 3098 3098 3098 3098 3098 3099 3099 3099 3099 3099 3099 3099 3099 3099 3099 3099 3100 3100 3100 3101 3101 3102 3102 3103 3104 3104 3105 3105 3106 3107 3108 3109 3109 3110 3111 3111 3111 3111 3112 3112 3113 3114 3115 3115 3116 3116 3117 3118 3118 3119 3120 3121 3122 3124 3125 3125 3124 3124 3126 3127 3127 3128 3128 3129 3129 3130 3130 3130 3130 3129 3129 3129 3129 3130 3130 3132 3133 3134 3135 3135 3136 3136 3136
3095 3096 3096 3096 3096 3097 3097 3097 3097 3097 3097 3097 3097 3097 3097 3097 3098 3098 3098 3098 3098 3098 3099 3099 3099 3100 3100 3101 3101 3102 3103 3103 3103 3104 3105 3106 3107 3107 3108 3109 3110 3110 3110 3110 3111 3112 3113 3113 3114 3114 3115 3116 3116 3117 3118 3119 3120 3121 3123 3123 3123 3123 3124 3125 3126 3126 3127 3127 3127 3128 3129 3129 3130 3130 3129 3129 3129 3129 3129 3130 3131 3133 3134 3135 3135 3135 3135 3135
3094 3094 3094 3094 3094 3095 3095 3096 3096 3096 3096 3096 3096 3096 3096 3096 3097 3097 3097 3097 3097 3097 3097 3098 3098 3098 3099 3099 3100 3101 3101 3102 3102 3102 3103 3104 3105 3106 3107 3108 3108 3109 3109 3109 3110 3111 3112 3112 3113 3113 3114 3114 3115 3116 3116 3117 3119 3120 3121 3121 3121 3122 3123 3124 3124 3125 3125 3126 3126 3126 3127 3128 3129 3129 3129 3129 3129 3129 3129 3129 3130 3131 3133 3134 3134 3134 3134 3134
3092 3092 3093 3093 3093 3093 3093 3094 3094 3094 3094 3094 3095 3095 3095 3095 3096 3096 3096 3095 3095 3096 3096 3097 3097 3097 3097 3098 3099 3099 3100 3100 3100 3101 3101 3102 3103 3104 3105 3106 3107 3107 3108 3108 3109 3110 3110 3111 3111 3112 3112 3113 3114 3114 3115 3116 3117 3119 3120 3120 3121 3121 3122 3122 3123 3124 3124 3125 3125 3125 3126 3127 3128 3129 3128 3128 3128 3128 3129 3129 3130 3130 3131 3132 3133 3133 3133 3133
3091 3091 3091 3091 3091 3091 3091 3092 3092 3092 3092 3093 3093 3093 3094 3094 3094 3094 3094 3094 3094 3094 3095 3095 3095 3096 3096 3097 3097 3098 3099 3099 3099 3099 3100 3101 3102 3102 3103 3104 3105 3106 3106 3107 3108 3108 3109 3110 3110 3111 3111 3112 3113 3113 3114 3115 3116 3118 3119 3120 3120 3120 3120 3121 3122 3123 3123 3124 3125 3125 3125 3127 3127 3128 3128 3128 3128 3128 3129 3129 3129 3130 3130 3131 3131 3131 3132 3132
3089 3089 3089 3090 3090 3090 3090 3090 3090 3090 3091 3091 3091 3092 3092 3092 3093 3093 3093 3093 3093 3093 3093 3094 3094 3094 3095 3095 3096 3096 3097 3097 3097 3098 3099 3099 3100 3101 3102 3102 3103 3104 3105 3105 3106 3107 3107 3108 3109 3109 3110 3111 3111 3112 3113 3114 3116 3117 3118 3118 3119 3119 3119 3120 3121 3122 3122 3123 3124 3124 3125 3126 3126 3127 3127 3128 3128 3128 3129 3129 3129 3129 3129 3129 3130 3131 3131 3131
3087 3088 3088 3088 3088 3088 3088 3088 3089 3089 3089 3089 3089 3090 3090 3090 3091 3091 3092 3092 3092 3092 3092 3092 3093 3093 3093 3094 3094 3095 3095 3095 3096 3097 3097 3098 3099 3100 3100 3101 3102 3103 3104 3104 3105 3105 3106 3107 3107 3108 3109 3110 3110 3111 3111 3113 3115 3116 3116 3117 3118 3118 3118 3119 3119 3120 3121 3122 3123 3123 3124 3126 3126 3126 3127 3128 3128 3128 3128 3128 3128 3128 3128 3128 3129 3130 3131 3131
3085 3086 3086 3086 3086 3087 3087 3087 3087 3087 3087 3087 3087 3088 3088 3088 3089 3090 3090 3090 3090 3090 3091 3091 3091 3092 3092 3092 3093 3093 3093 3094 3095 3095 3096 3097 3097 3098 3099 3100 3101 3101 3102 3103 3103 3104 3105 3105 3106 3107 3108 3109 3109 3110 3110 3112 3113 3114 3115 3116 3116 3116 3116 3117 3117 3119 3120 3121 3121 3122 3123 3124 3124 3125 3126 3127 3128 3128 3128 3128 3127 3127 3128 3128 3129 3129 3130 3131
3084 3084 3084 3084 3084 3085 3085 3085 3085 3085 3086 3086 3086 3086 3086 3087 3088 3088 3089 3089 3089 3089 3089 3090 3090 3090 3091 3091 3091 3091 3092 3092 3093 3094 3094 3095 3096 3097 3098 3099 3099 3100 3101 3101 3102 3102 3103 3104 3104 3105 3106 3107 3108 3109 3109 3110 3112 3113 3113 3114 3114 3114 3114 3115 3116 3117 3118 3119 3120 3121 3122 3122 3123 3124 3126 3126 3127 3127 3127 3127 3127 3127 3127 3128 3129 3130 3131 3131
3082 3082 3082 3082 3082 3083 3083 3083 3083 3083 3084 3084 3084 3084 3084 3085 3086 3086 3087 3087 3087 3088 3088 3088 3088 3089 3089 3089 3089 3090 3090 3091 3091 3092 3092 3093 3094 3095 3096 3097 3098 3099 3099 3099 3100 3101 3101 3102 3103 3104 3105 3106 3107 3108 3108 3109 3111 3112 3112 3112 3112 3112 3113 3113 3114 3115 3116 3117 3119 3119 3120 3120 3121 3123 3125 3125 3126 3126 3126 3126 3126 3126 3126 3128 3129 3130 3131 3131
3079 3080 3080 3080 3080 3081 3081 3081 3081 3081 3081 3081 3081 3082 3082 3083 3083 3084 3085 3085 3086 3086 3087 3087 3087 3087 3088 3088 3088 3088 3089 3089 3089 3090 3091 3092 3093 3094 3095 3096 3096 3097 3097 3097 3099 3100 3101 3102 3102 3103 3104 3105 3106 3107 3108 3108 3109 3110 3110 3111 3111 3111 3112 3112 3113 3114 3115 3116 3118 3118 3118 3118 3120 3122 3123 3124 3124 3125 3125 3125 3125 3125 3126 3127 3128 3129 3130 3130
3077 3078 3078 3078 3078 3079 3079 3079 3079 3079 3079 3079 3079 3079 3080 3081 3081 3082 3083 3083 3084 3085 3085 3086 3086 3086 3086 3087 3086 3086 3087 3087 3087 3088 3089 3090 3091 3092 3093 3094 3094 3095 3095 3096 3097 3098 3100 3101 3102 3102 3103 3104 3105 3106 3107 3107 3108 3109 3109 3110 3110 3110 3111 3111 3112 3113 3114 3115 3116 3116 3116 3116 3119 3121 3121 3122 3122 3123 3123 3124 3124 3124 3125 3126 3127 3128 3129 3130
3076 3076 3076 3076 3076 3077 3077 3077 3077 3077 3077 3076 3077 3077 3078 3079 3079 3080 3081 3081 3082 3083 3084 3084 3084 3084 3085 3085 3085 3085 3085 3085 3086 3086 3087 3088 3089 3090 3091 3092 3092 3093 3093 3094 3095 3097 3098 3100 3101 3102 3102 3103 3104 3105 3106 3106 3107 3108 3109 3109 3109 3110 3111 3111 3112 3112 3113 3114 3114 3115 3115 3115 3117 3119 3119 3119 3120 3121 3121 3122 3122 3123 3124 3125 3126 3127 3128 3129
3074 3074 3074 3074 3074 3075 3075 3075 3076 3075 3075 3074 3074 3075 3076 3077 3077 3078 3079 3079 3080 3081 3082 3082 3083 3083 3083 3083 3083 3084 3084 3084 3085 3085 3086 3087 3087 3088 3089 3090 3090 3091 3092 3092 3093 3095 3097 3099 3100 3100 3101 3102 3103 3104 3105 3105 3106 3107 3108 3108 3108 3109 3109 3110 3111 3112 3112 3113 3112 3114 3114 3114 3115 3116 3117 3118 3118 3119 3119 3120 3120 3121 3123 3124 3125 3126 3127 3128
3072 3072 3072 3072 3072 3072 3073 3073 3073 3073 3072 3072 3072 3073 3074 3075 3075 3076 3076 3077 3078 3079 3079 3080 3080 3081 3081 3080 3081 3082 3082 3083 3083 3084 3085 3085 3086 3087 3087 3088 3089 3090 3090 3091 3092 3094 3096 3097 3098 3099 3100 3101 3102 3103 3104 3105 3105 3105 3107 3107 3107 3107 3108 3109 3111 3111 3111 3112 3112 3112 3113 3113 3114 3115 3116 3116 3116 3117 3117 3118 3118 3119 3121 3123 3124 3125 3127 3128
3070 3070 3070 3070 3070 3070 3071 3071 3071 3071 3070 3069 3070 3071 3072 3073 3073 3073 3074 3075 3075 3076 3077 3077 3078 3079 3079 3079 3079 3080 3081 3081 3081 3082 3083 3084 3084 3085 3086 3087 3088 3088 3089 3089 3091 3092 3094 3096 3097 3098 3098 3099 3100 3102 3103 3104 3104 3104 3105 3105 3106 3106 3107 3108 3110 3110 3110 3111 3110 3111 3111 3112 3112 3113 3114 3115 3115 3115 3116 3116 3117 3118 3119 3122 3123 3124 3125 3127
3068 3068 3068 3068 3068 3068 3069 3069 3069 3068 3067 3067 3068 3069 3070 3070 3071 3071 3072 3072 3073 3073 3074 3075 3076 3076 3077 3077 3077 3078 3079 3080 3080 3080 3081 3082 3083 3084 3084 3085 3086 3087 3088 3088 3090 3091 3093 3094 3095 3096 3097 3098 3099 3100 3101 3101 3102 3103 3104 3104 3105 3105 3106 3107 3108 3109 3109 3109 3109 3109 3110 3110 3111 3111 3112 3113 3113 3114 3115 3115 3114 3115 3117 3120 3122 3123 3124 3125
3066 3066 3066 3066 3066 3066 3066 3066 3066 3066 3065 3065 3065 3067 3067 3067 3068 3069 3069 3069 3070 3071 3071 3072 3073 3074 3075 3075 3075 3076 3077 3077 3078 3079 3079 3080 3081 3082 3083 3083 3084 3085 3086 3087 3089 3090 3091 3092 3093 3094 3095 3096 3096 3098 3099 3100 3101 3102 3103 3103 3103 3103 3104 3105 3106 3107 3108 3107 3107 3108 3108 3109 3109 3109 3110 3110 3111 3112 3113 3112 3113 3114 3115 3117 3119 3121 3122 3123
3064 3064 3063 3063 3064 3064 3064 3064 3064 3064 3063 3063 3063 3064 3065 3065 3065 3066 3066 3066 3067 3068 3068 3069 3069 3070 3072 3073 3072 3073 3074 3075 3076 3077 3077 3078 3079 3080 3081 3082 3083 3084 3085 3086 3087 3088 3089 3090 3090 3091 3093 3094 3096 3097 3098 3099 3100 3101 3102 3102 3102 3102 3101 3103 3105 3106 3106 3105 3105 3106 3106 3106 3107 3107 3107 3108 3108 3109 3110 3110 3111 3112 3113 3115 3117 3118 3120 3122
3062 3061 3061 3061 3061 3061 3061 3062 3061 3061 3061 3061 3061 3062 3062 3063 3063 3063 3063 3064 3064 3064 3064 3065 3065 3066 3068 3068 3068 3070 3071 3073 3074 3075 3075 3076 3077 3078 3079 3080 3081 3082 3083 3085 3085 3086 3088 3088 3089 3091 3092 3094 3095 3096 3097 3098 3099 3100 3101 3101 3101 3100 3099 3100 3102 3104 3104 3103 3103 3104 3104 3104 3104 3104 3104 3105 3105 3107 3108 3109 3109 3110 3112 3113 3115 3116 3117 3119
3059 3059 3059 3059 3059 3059 3059 3059 3059 3059 3059 3059 3059 3060 3060 3061 3061 3061 3061 3061 3062 3061 3061 3061 3061 3063 3064 3064 3064 3067 3068 3070 3072 3073 3073 3075 3076 3077 3078 3079 3080 3081 3082 3083 3084 3085 3086 3086 3088 3090 3091 3092 3094 3095 3096 3097 3097 3098 3099 3099 3099 3098 3098 3099 3101 3102 3102 3102 3101 3101 3101 3101 3101 3101 3102 3102 3103 3105 3106 3106 3107 3108 3109 3111 3113 3114 3114 3116
3057 3057 3056 3056 3056 3057 3057 3057 3057 3057 3057 3057 3058 3058 3058 3059 3059 3059 3059 3058 3059 3059 3058 3058 3059 3060 3060 3060 3061 3062 3064 3066 3069 3070 3071 3073 3074 3075 3076 3077 3079 3080 3081 3081 3082 3083 3084 3084 3087 3088 3089 3090 3092 3093 3094 3095 3096 3096 3097 3097 3096 3096 3098 3099 3100 3100 3101 3100 3099 3099 3099 3098 3098 3098 3099 3100 3101 3102 3103 3103 3104 3105 3106 3108 3110 3112 3113 3114
3055 3054 3054 3054 3054 3055 3055 3055 3055 3055 3055 3055 3056 3057 3057 3057 3057 3057 3058 3056 3056 3057 3056 3056 3056 3056 3056 3056 3058 3059 3060 3063 3066 3068 3069 3070 3072 3073 3075 3076 3078 3079 3080 3080 3081 3082 3083 3084 3085 3086 3087 3089 3090 3092 3093 3094 3094 3094 3095 3095 3095 3095 3097 3098 3098 3099 3099 3098 3097 3098 3097 3095 3095 3096 3097 3098 3098 3098 3099 3099 3101 3102 3103 3106 3107 3109 3110 3112
3053 3052 3052 3052 3053 3053 3053 3054 3054 3054 3054 3054 3055 3055 3056 3056 3055 3055 3056 3055 3054 3055 3054 3054 3055 3054 3054 3054 3054 3056 3058 3060 3064 3066 3067 3068 3070 3071 3073 3075 3076 3077 3078 3079 3080 3081 3082 3083 3084 3085 3086 3087 3089 3090 3091 3092 3092 3092 3092 3093 3094 3094 3095 3096 3096 3097 3097 3096 3096 3097 3096 3093 3093 3094 3094 3095 3095 3095 3095 3096 3097 3098 3100 3102 3104 3106 3107 3109
3050 3050 3050 3050 3051 3051 3051 3052 3052 3052 3052 3053 3053 3054 3054 3054 3054 3054 3054 3054 3053 3053 3053 3053 3053 3053 3053 3052 3052 3053 3055 3058 3061 3063 3064 3066 3068 3070 3072 3073 3074 3076 3077 3078 3079 3080 3081 3082 3083 3084 3085 3086 3087 3088 3089 3090 3091 3091 3091 3092 3093 3093 3094 3094 3095 3096 3096 3095 3095 3096 3095 3093 3091 3091 3092 3092 3092 3092 3091 3091 3091 3093 3096 3098 3100 3103 3105 3106
3048 3048 3048 3049 3049 3049 3049 3050 3050 3050 3051 3052 3052 3053 3053 3053 3053 3053 3053 3053 3053 3052 3052 3052 3052 3052 3052 3051 3051 3052 3053 3055 3057 3059 3062 3064 3066 3068 3070 3071 3073 3075 3076 3077 3078 3078 3079 3080 3082 3083 3084 3084 3085 3086 3087 3089 3089 3090 3090 3091 3091 3091 3092 3093 3094 3094 3094 3094 3093 3093 3095 3093 3089 3089 3090 3090 3089 3088 3087 3086 3086 3089 3092 3094 3097 3099 3102 3104
3046 3046 3047 3047 3047 3048 3048 3048 3049 3049 3050 3051 3051 3052 3052 3052 3053 3053 3053 3053 3052 3051 3051 3051 3051 3051 3051 3050 3050 3051 3052 3053 3055 3057 3059 3062 3064 3066 3068 3070 3071 3073 3074 3076 3076 3077 3077 3079 3080 3081 3082 3083 3083 3085 3087 3088 3088 3089 3089 3090 3090 3090 3091 3091 3092 3093 3093 3093 3092 3091 3093 3092 3088 3087 3088 3087 3086 3085 3083 3083 3084 3087 3089 3091 3093 3096 3099 3101
3045 3045 3045 3045 3046 3046 3047 3047 3048 3048 3049 3049 3050 3051 3051 3052 3052 3052 3053 3053 3051 3050 3050 3050 3051 3051 3050 3050 3050 3050 3051 3052 3054 3055 3057 3059 3061 3064 3066 3068 3070 3072 3074 3075 3075 3076 3077 3078 3079 3080 3081 3081 3083 3085 3086 3086 3087 3087 3088 3088 3088 3089 3089 3090 3091 3091 3092 3092 3089 3089 3091 3090 3086 3085 3086 3085 3084 3083 3082 3082 3083 3084 3086 3088 3090 3093 3095 3097
3043 3044 3044 3044 3045 3045 3046 3046 3047 3047 3048 3048 3049 3050 3050 3051 3051 3052 3053 3051 3049 3050 3050 3050 3050 3050 3050 3049 3049 3049 3050 3051 3052 3054 3055 3057 3060 3062 3065 3067 3069 3071 3072 3073 3074 3075 3076 3077 3077 3078 3079 3080 3082 3083 3084 3085 3085 3086 3086 3087 3087 3087 3088 3089 3089 3089 3091 3089 3086 3087 3089 3090 3087 3084 3084 3084 3083 3082 3081 3081 3082 3082 3084 3085 3086 3089 3092 3093
3042 3042 3042 3043 3044 3044 3045 3045 3046 3046 3047 3047 3048 3049 3050 3050 3051 3052 3052 3049 3048 3049 3049 3049 3049 3049 3049 3048 3048 3048 3049 3050 3051 3053 3054 3056 3058 3060 3063 3065 3067 3069 3071 3072 3072 3073 3074 3075 3076 3077 3078 3078 3080 3081 3082 3082 3083 3084 3085 3085 3086 3086 3087 3088 3088 3089 3089 3085 3084 3085 3087 3088 3086 3083 3083 3083 3082 3082 3081 3081 3081 3081 3082 3083 3085 3087 3089 3090
3041 3041 3041 3042 3043 3043 3044 3044 3044 3045 3045 3046 3047 3048 3049 3050 3050 3049 3048 3048 3048 3048 3048 3049 3049 3048 3048 3048 3047 3047 3048 3049 3050 3052 3053 3054 3055 3057 3059 3062 3063 3066 3068 3069 3070 3071 3072 3073 3074 3075 3075 3076 3078 3079 3079 3080 3081 3082 3083 3084 3085 3086 3087 3088 3087 3087 3086 3083 3083 3085 3086 3086 3084 3082 3082 3082 3081 3081 3080 3081 3081 3081 3081 3083 3084 3086 3087 3088
3040 3040 3040 3041 3041 3042 3042 3043 3043 3044 3044 3045 3046 3046 3048 3049 3048 3046 3046 3047 3047 3047 3048 3048 3048 3048 3048 3047 3047 3047 3047 3048 3049 3051 3052 3053 3054 3056 3058 3060 3062 3064 3066 3068 3069 3070 3071 3071 3072 3073 3073 3073 3075 3076 3077 3077 3079 3079 3080 3082 3083 3083 3086 3087 3086 3086 3084 3082 3082 3084 3085 3084 3082 3081 3081 3080 3081 3080 3079 3080 3080 3080 3081 3082 3084 3085 3086 3088
3038 3039 3039 3039 3040 3040 3041 3042 3042 3042 3043 3044 3045 3046 3047 3047 3045 3045 3045 3046 3047 3047 3047 3047 3047 3047 3047 3047 3046 3046 3046 3047 3049 3050 3051 3052 3053 3055 3057 3059 3061 3064 3065 3067 3068 3068 3069 3069 3068 3069 3070 3071 3072 3073 3075 3076 3077 3078 3078 3080 3080 3080 3082 3083 3082 3082 3081 3080 3081 3082 3082 3081 3079 3079 3079 3079 3079 3079 3079 3079 3080 3081 3081 3081 3083 3084 3086 3088
3037 3037 3038 3038 3038 3039 3040 3040 3041 3041 3042 3043 3043 3044 3044 3044 3044 3044 3045 3046 3046 3046 3046 3046 3046 3046 3047 3047 3046 3046 3046 3047 3048 3049 3050 3051 3052 3054 3055 3057 3059 3062 3064 3065 3066 3067 3068 3067 3066 3067 3068 3070 3071 3072 3074 3075 3075 3075 3077 3078 3077 3077 3078 3079 3079 3079 3079 3079 3080 3080 3079 3078 3078 3078 3078 3078 3078 3078 3079 3079 3080 3081 3081 3082 3083 3084 3085 3087
3036 3036 3036 3037 3037 3038 3039 3039 3040 3040 3041 3042 3042 3042 3042 3043 3043 3043 3044 3045 3045 3045 3045 3046 3045 3046 3046 3046 3046 3046 3046 3046 3047 3048 3049 3051 3052 3053 3054 3056 3058 3060 3062 3063 3065 3065 3066 3065 3065 3066 3067 3069 3070 3071 3072 3073 3073 3073 3074 3074 3074 3076 3077 3077 3078 3079 3079 3079 3078 3078 3077 3077 3077 3078 3077 3077 3077 3078 3079 3079 3079 3080 3081 3082 3082 3083 3084 3085
3035 3035 3035 3035 3036 3037 3038 3038 3039 3039 3040 3041 3041 3041 3042 3042 3042 3043 3043 3044 3044 3044 3045 3045 3045 3045 3045 3045 3046 3045 3045 3046 3046 3047 3049 3050 3051 3052 3054 3055 3057 3059 3060 3062 3063 3064 3064 3064 3064 3065 3066 3067 3068 3069 3070 3071 3071 3071 3072 3072 3073 3075 3076 3076 3077 3078 3079 3078 3076 3076 3076 3076 3076 3077 3076 3076 3076 3077 3078 3078 3079 3080 3080 3081 3081 3082 3083 3085
3033 3034 3034 3035 3035 3036 3037 3037 3038 3039 3039 3040 3040 3041 3041 3041 3041 3042 3042 3042 3043 3043 3044 3044 3045 3044 3044 3045 3045 3045 3045 3045 3046 3046 3048 3049 3050 3051 3052 3054 3056 3057 3059 3061 3062 3063 3064 3064 3063 3064 3065 3065 3066 3067 3068 3068 3069 3070 3070 3071 3072 3073 3074 3075 3076 3077 3077 3077 3077 3076 3075 3075 3075 3076 3076 3075 3076 3076 3077 3077 3078 3079 3080 3080 3080 3081 3082 3084
3032 3033 3034 3034 3035 3035 3036 3037 3037 3038 3039 3039 3040 3040 3040 3040 3040 3040 3041 3041 3042 3042 3043 3043 3044 3044 3044 3044 3044 3044 3044 3045 3045 3045 3046 3048 3049 3050 3051 3052 3054 3055 3057 3058 3060 3061 3062 3063 3063 3063 3064 3064 3065 3066 3066 3066 3067 3068 3069 3070 3071 3071 3072 3072 3073 3073 3073 3075 3076 3075 3074 3074 3074 3075 3075 3075 3076 3076 3076 3077 3078 3078 3079 3079 3079 3080 3081 3082
3032 3032 3033 3034 3034 3035 3036 3036 3037 3037 3038 3038 3039 3039 3039 3039 3039 3039 3040 3040 3041 3042 3042 3042 3043 3043 3043 3044 3044 3044 3044 3044 3044 3045 3045 3046 3048 3049 3050 3051 3052 3053 3054 3056 3057 3059 3061 3061 3061 3062 3062 3063 3064 3064 3064 3065 3065 3066 3067 3068 3069 3070 3071 3071 3072 3072 3072 3073 3074 3074 3073 3073 3073 3074 3074 3074 3075 3075 3076 3076 3077 3077 3078 3079 3080 3081 3081 3081
3031 3032 3033 3033 3034 3035 3035 3036 3036 3037 3037 3038 3038 3038 3038 3038 3038 3039 3039 3039 3040 3041 3041 3041 3042 3042 3043 3043 3044 3043 3043 3043 3043 3044 3044 3045 3046 3047 3049 3050 3051 3051 3052 3053 3055 3057 3058 3059 3060 3061 3061 3062 3062 3063 3063 3063 3063 3064 3064 3065 3066 3068 3069 3069 3070 3071 3071 3071 3072 3073 3072 3071 3072 3073 3073 3073 3074 3074 3075 3075 3076 3076 3077 3078 3079 3080 3080 3080
3031 3031 3032 3033 3034 3034 3035 3035 3036 3036 3036 3037 3037 3037 3037 3037 3037 3038 3038 3038 3039 3039 3040 3040 3041 3042 3042 3042 3043 3043 3042 3042 3042 3043 3043 3044 3045 3046 3047 3049 3050 3050 3051 3051 3052 3054 3056 3057 3058 3059 3060 3061 3061 3061 3062 3062 3062 3062 3063 3063 3065 3066 3067 3067 3067 3068 3069 3070 3071 3071 3071 3071 3072 3072 3072 3072 3073 3073 3074 3074 3075 3076 3076 3077 3079 3079 3079 3078
3030 3031 3032 3032 3033 3034 3034 3035 3035 3035 3035 3035 3035 3035 3035 3035 3035 3036 3036 3037 3037 3038 3038 3039 3040 3041 3041 3041 3041 3042 3042 3041 3041 3042 3042 3042 3043 3045 3046 3047 3048 3049 3050 3050 3051 3052 3055 3056 3057 3058 3059 3060 3060 3060 3060 3060 3061 3061 3061 3062 3063 3064 3065 3066 3066 3066 3067 3067 3069 3070 3070 3070 3071 3071 3071 3071 3072 3072 3073 3074 3075 3075 3076 3077 3078 3078 3077 3077
3030 3030 3031 3032 3033 3033 3034 3034 3034 3034 3034 3034 3034 3034 3033 3033 3034 3034 3035 3035 3036 3036 3037 3038 3039 3040 3040 3040 3040 3041 3041 3041 3041 3041 3041 3041 3042 3043 3045 3046 3046 3047 3048 3049 3050 3051 3052 3054 3055 3056 3057 3058 3059 3059 3059 3059 3059 3059 3060 3060 3061 3062 3064 3064 3065 3065 3065 3065 3067 3068 3068 3069 3070 3071 3071 3071 3071 3072 3073 3073 3074 3075 3076 3077 3078 3077 3078 3078
3029 3030 3031 3032 3032 3033 3033 3033 3033 3033 3033 3033 3032 3032 3032 3032 3032 3033 3033 3034 3034 3035 3036 3037 3037 3038 3039 3039 3039 3039 3040 3040 3040 3040 3040 3040 3040 3041 3043 3044 3045 3046 3047 3048 3049 3050 3051 3052 3053 3053 3054 3056 3057 3057 3057 3058 3058 3058 3059 3059 3060 3061 3062 3063 3064 3064 3063 3064 3065 3066 3067 3068 3069 3069 3069 3070 3070 3072 3073 3073 3074 3075 3076 3077 3077 3078 3079 3080
3029 3030 3030 3031 3031 3032 3032 3032 3032 3032 3032 3032 3031 3031 3031 3030 3031 3031 3032 3032 3033 3033 3034 3035 3036 3036 3037 3038 3038 3038 3038 3038 3039 3039 3040 3040 3040 3040 3041 3042 3044 3045 3046 3047 3048 3049 3049 3050 3051 3051 3052 3053 3054 3055 3056 3056 3057 3057 3058 3058 3058 3059 3060 3061 3062 3062 3062 3063 3064 3065 3065 3067 3067 3068 3068 3069 3070 3071 3072 3073 3074 3075 3076 3076 3077 3078 3078 3079
3029 3029 3030 3030 3031 3031 3031 3031 3031 3031 3031 3031 3031 3031 3030 3030 3030 3030 3031 3031 3032 3033 3033 3034 3035 3035 3035 3036 3037 3037 3037 3037 3038 3038 3039 3039 3039 3039 3039 3040 3042 3044 3045 3045 3046 3047 3048 3049 3049 3050 3051 3052 3053 3054 3055 3055 3056 3056 3057 3057 3058 3058 3058 3059 3060 3060 3061 3062 3062 3063 3064 3065 3066 3066 3067 3068 3069 3070 3071 3072 3073 3075 3075 3076 3076 3077 3077 3078
3028 3029 3029 3029 3030 3030 3030 3031 3031 3031 3031 3031 3031 3031 3030 3030 3030 3030 3030 3031 3031 3032 3033 3033 3033 3034 3034 3035 3035 3036 3036 3036 3036 3037 3037 3038 3039 3039 3039 3040 3041 3042 3044 3044 3044 3046 3047 3048 3049 3049 3050 3051 3052 3053 3054 3054 3055 3055 3056 3057 3057 3057 3058 3058 3058 3059 3060 3060 3060 3061 3063 3063 3064 3064 3065 3066 3068 3069 3071 3072 3073 3074 3074 3075 3075 3076 3077 3077
3027 3028 3028 3029 3029 3029 3030 3030 3030 3030 3031 3031 3031 3031 3030 3030 3030 3030 3030 3031 3031 3031 3032 3032 3033 3033 3033 3034 3035 3035 3035 3035 3035 3036 3036 3037 3038 3038 3040 3041 3041 3041 3043 3044 3044 3045 3046 3047 3048 3048 3049 3050 3051 3052 3053 3053 3054 3054 3055 3056 3056 3057 3057 3057 3057 3058 3058 3059 3059 3060 3061 3062 3063 3063 3064 3065 3067 3068 3070 3071 3071 3072 3073 3073 3074 3075 3076 3077
3027 3027 3028 3028 3029 3029 3029 3030 3030 3030 3031 3031 3031 3031 3030 3030 3030 3030 3030 3030 3031 3031 3031 3032 3032 3032 3033 3033 3033 3034 3034 3035 3035 3035 3035 3036 3037 3037 3039 3041 3041 3041 3042 3043 3043 3044 3045 3046 3046 3047 3048 3049 3050 3051 3052 3052 3053 3053 3054 3054 3055 3056 3056 3056 3057 3057 3057 3058 3059 3059 3060 3061 3062 3062 3063 3065 3066 3067 3068 3069 3070 3071 3071 3072 3073 3074 3075 3076
3026 3027 3027 3028 3028 3029 3029 3030 3030 3030 3030 3030 3030 3030 3030 3030 3030 3030 3030 3030 3030 3031 3031 3031 3031 3032 3032 3032 3032 3033 3033 3034 3035 3035 3035 3036 3037 3038 3038 3039 3039 3040 3041 3042 3042 3043 3043 3044 3045 3046 3047 3048 3049 3050 3051 3051 3052 3053 3053 3054 3054 3054 3055 3055 3056 3056 3057 3057 3058 3059 3059 3060 3061 3062 3063 3064 3065 3067 3067 3068 3069 3070 3071 3072 3072 3073 3074 3075
3026 3026 3027 3028 3028 3028 3029 3029 3029 3030 3030 3030 3030 3030 3030 3030 3030 3029 3029 3030 3030 3030 3030 3030 3030 3031 3032 3032 3032 3032 3033 3033 3034 3034 3035 3036 3037 3038 3038 3038 3039 3039 3039 3040 3041 3042 3042 3043 3044 3045 3047 3048 3048 3049 3050 3051 3051 3052 3053 3053 3053 3053 3054 3054 3055 3055 3056 3057 3057 3058 3059 3060 3060 3061 3062 3064 3065 3066 3067 3067 3068 3069 3070 3071 3072 3073 3074 3074